一网星座-0626星 (ONEWEB-0626)

导读 | 豆包AI

ONEWEB-0626是英国OneWeb低轨全球卫星互联网星座的组网卫星,于2023年1月10日发射升空。卫星重约147.5公斤,配置Ku波段天线,工作于12-18GHz频段,采用透明转发模式,可配合星座提供全球宽带互联网接入服务。设计寿命结束后会按计划安全脱轨,减少空间碎片风险,助力OneWeb实现全球覆盖的通信组网目标。

基本信息
目录编号:
55167
目录名称:
ONEWEB-0626
国际标识:
2023-004AD
轨道中心:
EARTH
卫星名称:
一网星座-0626星
卫星全名:
一网星座-0626星 (ONEWEB-0626)
卫星状态:
在轨 (已飞行1159 天)
发射日期:
2023-01-10 UTC
国别 :
英国 (GB)
星等 :
--
轨道信息
数据来源 国际轨道数据 AOE轨道数据
星历时间 2026-03-14T06:13:11+0800
15小时前
查看轨道信息
2026-03-08T03:00:00+0800
6天前
查看轨道信息
半长轴 7571.856km 7571.771km
偏心率 0.0002293 0.0002235
轨道倾角 87.916° 87.914°
近地点辐角 80.970° 108.736°
升交点赤经 24.791° 26.008°
平近点角 279.169° 330.491°
近地点 1191.982km 1191.941km
远地点 1195.456km 1195.327km
周期 109.286分钟 109.284分钟
每日圈数 13.176477 13.176699
详细信息
平衡模式:
三轴稳定
覆盖范围:
全球
运营商:
一网卫星公司
运营商所在国:
英国
制造商(研发单位):
一网卫星公司
制造商所在国:
英国
使用方式:
暂无
卫星简介
OneWeb卫星网络由648颗重约125公斤的微型卫星组成,运行在1200公里的轨道上。 每颗卫星都能够提供至少每秒8千兆位的吞吐量,以使用其高吞吐量的Ku频段有效载荷为家庭和移动平台提供互联网接入。该卫星仍在工作。
2D轨道图
3D轨道图
轨道高度分析图
轨道倾角分析图
轨道综合分析图
查看轨道综合分析图